Location: Newark
(55.2831°N, 38.7366°E)
Time: 05:57:13
(UTC+00:00)

O/OREOS (USA 219) - Visible Passes

Search period start: 22 September 2019 00:00
Search period end: 02 October 2019 00:00
Orbit: 621 x 646 km, 72.0° (Epoch: 22 May)

Date Brightness Start Highest point End Pass type
(mag) Time Alt. Az. Time Alt. Az. Time Alt. Az.
22 Sep ? 16:22:17 10° NNW 16:22:39 10° N 16:23:01 10° N visible
22 Sep ? 18:02:39 10° N 18:04:13 12° NNE 18:05:48 10° NE visible
22 Sep ? 19:41:17 10° NNW 19:44:03 25° NNE 19:44:03 25° NNE visible
22 Sep ? 21:20:30 10° NW 21:21:29 16° NW 21:21:29 16° NW visible
23 Sep ? 18:24:23 10° N 18:26:57 15° NNE 18:28:02 14° NE visible
23 Sep ? 20:03:12 10° NNW 20:05:28 26° N 20:05:28 26° N visible
23 Sep ? 21:42:47 10° NW 21:42:54 11° NW 21:42:54 11° NW visible
24 Sep ? 17:08:06 10° N 17:08:20 10° N 17:08:34 10° NNE visible
24 Sep ? 18:46:11 10° NNW 18:49:28 20° NNE 18:49:28 20° NNE visible
24 Sep ? 20:25:12 10° NNW 20:26:54 23° NNW 20:26:54 23° NNW visible
25 Sep ? 17:29:24 10° N 17:31:09 12° NNE 17:32:52 10° NE visible
25 Sep ? 19:08:03 10° NNW 19:10:55 26° NNE 19:10:55 26° NNE visible
25 Sep ? 20:47:19 10° NW 20:48:21 17° NW 20:48:21 17° NW visible
26 Sep ? 17:51:08 10° N 17:53:50 15° NNE 17:54:57 14° NE visible
26 Sep ? 19:30:00 10° NNW 19:32:23 28° N 19:32:23 28° N visible
26 Sep ? 21:09:38 10° NW 21:09:49 11° NW 21:09:49 11° NW visible
27 Sep ? 16:34:37 10° N 16:35:16 10° N 16:35:53 10° NNE visible
27 Sep ? 18:12:58 10° NNW 18:16:27 21° NE 18:16:27 21° NE visible
27 Sep ? 19:52:00 10° NNW 19:53:52 24° NNW 19:53:52 24° NNW visible
28 Sep ? 16:56:09 10° N 16:58:02 12° NNE 16:59:56 10° NE visible
28 Sep ? 18:34:50 10° NNW 18:37:57 29° NNE 18:37:57 29° NNE visible
28 Sep ? 20:14:08 10° NW 20:15:23 18° NW 20:15:23 18° NW visible
29 Sep ? 17:17:54 10° N 17:20:45 16° NNE 17:22:02 14° NE visible
29 Sep ? 18:56:47 10° NNW 18:59:28 32° N 18:59:28 32° N visible
29 Sep ? 20:36:30 10° NW 20:36:54 12° NW 20:36:54 12° NW visible
30 Sep ? 16:01:17 10° N 16:02:10 10° NNE 16:03:04 10° NNE visible
30 Sep ? 17:39:44 10° NNW 17:43:19 22° NE 17:43:34 22° NE visible
30 Sep ? 19:18:48 10° NNW 19:21:00 28° NNW 19:21:00 28° NNW visible
01 Oct ? 16:22:54 10° N 16:24:57 13° NNE 16:26:59 10° NE visible
01 Oct ? 18:01:37 10° NNW 18:05:08 32° NNE 18:05:08 32° NNE visible
01 Oct ? 19:40:58 10° NW 19:42:34 21° NW 19:42:34 21° NW visible
